Location: Monfort
(47.1967°N, 0.2115°W)
Time: 11:02:44
(UTC+00:00)

HJ-1C - Pass Details

Date: 24 October 2020
Orbit: 429 x 444 km, 97.1° (Epoch: 28 November)

Event Time Altitude Azimuth Distance (km) Brightness Sun altitude
Exits shadow 18:29:18 31° 49° (NE) 809 4.3 -16.4°
Drops below altitude 10° 18:31:51 10° 5° (N) 1,584 6.1 -16.8°
Sets 18:34:00 0° 356° (N) 2,461 7.2 -17.2°
